WB7UVH Weather Reports


Display with metric or nautical units.
time (UTC)temp
F
wind
direction
speed
MPH
gust
MPH
rain 1hr
in
rain 24hr
in
rain mn
in
humidity
%
barometer
mb
20260502163003 54 238 0.0 0.0 0.00 0.01 0.01 87 1020.7
20260502151503 52 226 0.0 0.0 0.00 0.01 0.01 90 1020.9
20260502123003 51 236 3.0 8.0 0.00 0.01 0.01 92 1020.5
20260502121503 51 252 0.0 1.0 0.00 0.01 0.01 93 1020.5
20260502114503 51 257 3.0 7.0 0.00 0.01 0.01 93 1020.2
20260502113003 51 269 1.0 3.0 0.00 0.01 0.01 93 1020.2
20260502111504 51 236 1.0 8.0 0.00 0.01 0.01 93 1020.2
20260502104504 51 275 0.0 0.0 0.00 0.01 0.01 93 1020.2
20260502103003 51 275 0.0 1.0 0.00 0.01 0.01 93 1020.3
20260502101504 51 275 0.0 3.0 0.00 0.01 0.01 92 1020.6
20260502091503 53 249 2.0 8.0 0.01 0.01 0.01 90 1021.4
20260502071504 55 223 2.0 6.0 0.00 0.00 0.00 84 1021.3
20260502070003 55 248 2.0 3.0 0.00 0.00 0.00 84 1021.0
20260502064504 56 233 0.0 6.0 0.00 0.00 0.00 83 1020.8
20260502063004 56 248 2.0 3.0 0.00 0.00 0.00 81 1020.9
20260502060003 58 250 5.0 10.0 0.00 0.00 0.00 79 1020.8
20260502054503 59 242 1.0 3.0 0.00 0.00 0.00 77 1020.7
20260502051504 59 269 2.0 12.0 0.00 0.00 0.00 76 1020.7
20260502050004 60 259 3.0 12.0 0.00 0.00 0.00 75 1020.6
20260502044505 61 257 3.0 8.0 0.00 0.00 0.00 74 1020.3
20260502043005 61 259 1.0 9.0 0.00 0.00 0.00 74 1020.0
20260502041505 62 274 3.0 14.0 0.00 0.00 0.00 73 1019.7
20260502034505 64 245 2.0 8.0 0.00 0.00 0.00 70 1019.3
20260502033006 65 250 4.0 8.0 0.00 0.00 0.00 65 1018.9
20260502031505 65 267 1.0 3.0 0.00 0.00 0.00 65 1018.9
20260502030004 66 257 0.0 6.0 0.00 0.00 0.00 63 1018.8
20260502024505 66 228 2.0 9.0 0.00 0.00 0.00 63 1018.5
20260502023005 67 271 2.0 8.0 0.00 0.00 0.00 65 1018.5
20260502021505 68 257 0.0 5.0 0.00 0.00 0.00 68 1018.4
20260502020005 69 256 0.0 0.0 0.00 0.00 0.00 66 1018.3
20260502014504 69 257 0.0 8.0 0.00 0.00 0.00 60 1018.2
20260502011504 70 225 2.0 9.0 0.00 0.00 0.00 57 1018.1
20260502010004 70 290 2.0 8.0 0.00 0.00 0.00 57 1018.1
20260502004505 71 228 1.0 8.0 0.00 0.00 0.00 54 1018.1
20260502003004 71 281 0.0 7.0 0.00 0.00 0.00 55 1018.1
20260502001505 71 245 0.0 3.0 0.00 0.00 0.00 53 1018.1
20260502000005 71 260 0.0 8.0 0.00 0.00 0.00 55 1018.0
20260501233005 70 264 0.0 9.0 0.00 0.00 0.00 55 1018.1
20260501231505 71 244 0.0 9.0 0.00 0.00 0.00 54 1018.2
20260501230005 71 270 1.0 8.0 0.00 0.00 0.00 52 1018.4
20260501224505 72 265 1.0 7.0 0.00 0.00 0.00 51 1018.7
20260501223005 71 276 1.0 3.0 0.00 0.00 0.00 52 1018.8
20260501221505 71 283 2.0 8.0 0.00 0.00 0.00 51 1019.1
20260501220005 72 262 0.0 3.0 0.00 0.00 0.00 54 1019.4
20260501214505 70 285 1.0 7.0 0.00 0.00 0.00 53 1019.6
20260501213004 70 224 0.0 9.0 0.00 0.00 0.00 58 1019.8
20260501211505 69 280 3.0 9.0 0.00 0.00 0.00 57 1020.0
20260501210004 68 229 2.0 8.0 0.00 0.00 0.00 58 1020.1
20260501204505 69 247 3.0 10.0 0.00 0.00 0.00 60 1020.1
20260501203004 68 254 2.0 8.0 0.00 0.00 0.00 61 1020.1
20260501201505 67 246 4.0 8.0 0.00 0.00 0.00 61 1020.2
20260501200004 67 253 1.0 10.0 0.00 0.00 0.00 65 1020.3
20260501194504 66 221 2.0 9.0 0.00 0.00 0.00 66 1020.4
20260501193005 66 268 3.0 9.0 0.00 0.00 0.00 65 1020.5
20260501190004 64 263 4.0 12.0 0.00 0.00 0.00 68 1020.8
20260501184505 64 264 3.0 12.0 0.00 0.00 0.00 67 1020.8
20260501183004 64 271 3.0 9.0 0.00 0.00 0.00 67 1020.9
20260501181504 64 272 1.0 6.0 0.00 0.00 0.00 68 1020.9
20260501180005 63 264 1.0 3.0 0.00 0.00 0.00 68 1021.0
20260501174505 62 283 0.0 6.0 0.00 0.00 0.00 68 1021.0
20260501173005 62 245 0.0 9.0 0.00 0.00 0.00 72 1021.2
20260501171505 61 247 3.0 8.0 0.00 0.00 0.00 71 1021.2
20260501170004 61 258 1.0 6.0 0.00 0.00 0.00 70 1021.3